Flag for U.S.A. Weather past 2 weeks in McAllen, Texas, U.S.A.

Now
89 °F

Scattered clouds.


Feels Like: 99 °F
Forecast: 80 / 100 °F
Wind: 16 mph from Southeast

Location: Miller International Airport

Current Time: Jul 28, 2014 at 10:21:54 AM

Latest Report: Jul 28, 2014 at 9:53 AM


Visibility: 10 mi

Pressure: 30.08 "Hg

Humidity: 63%

Dew point: 75 °F

Location of McAllenLocation

Historic Weather in McAllen — Graph

°F

McAllen temperature yesterday

Maximum temperature yesterday: 99 °F (at 12:53 PM)
Minimum temperature yesterday: 80 °F (at 1:53 AM)
Average temperature yesterday: 88 °F

Past Weeks' High & Low Weather Summary

 TemperatureHumidityPressure
High101 °F (Jul 24, 3:53 PM)97% (Jul 14, 4:53 AM)30.08 "Hg (Jul 14, 4:53 AM)
Low75 °F (Jul 14, 5:53 AM)30% (Jul 24, 3:53 PM)29.75 "Hg (Jul 17, 5:53 PM)
Average87 °F67%29.94 "Hg
* Reported Jul 13 8:53 AM — Jul 28 8:53 AM, McAllen, Weather by CustomWeather, © 2014

Note: Actual official high and low records may vary slightly from our data, if they occured in-between our weather recording intervals... More about our weather records

Advertising

McAllen weather history for previous 24 hours

 ConditionsComfort  
Time TempWeatherWind HumidityBarometerVisibility
8:53 AM
Jul 28
84 °FPartly sunny.10 mph83%30.06 "Hg10 mi
7:53 AM80 °FClear.9 mph94%30.05 "Hg8 mi
6:53 AM79 °FPassing clouds.9 mph94%30.04 "Hg9 mi
5:53 AM79 °FClear.8 mph94%30.03 "Hg10 mi
4:53 AM80 °FClear.9 mph90%30.02 "Hg10 mi
3:53 AM80 °FClear.8 mph90%30.02 "Hg10 mi
2:53 AM81 °FClear.10 mph88%30.02 "Hg10 mi
1:53 AM82 °FPassing clouds.14 mph82%30.02 "Hg10 mi
12:53 AM82 °FPassing clouds.14 mph82%30.02 "Hg10 mi
11:53 PM
Jul 27
83 °FPassing clouds.14 mph79%30.03 "Hg10 mi
10:53 PM83 °FClear.17 mph77%30.02 "Hg10 mi
9:53 PM85 °FClear.16 mph68%30.01 "Hg10 mi
8:53 PM87 °FSunny.17 mph57%29.98 "Hg10 mi
7:53 PM90 °FSunny.17 mph48%29.97 "Hg10 mi
6:53 PM94 °FSunny.21 mph43%29.95 "Hg10 mi
5:53 PM95 °FSunny.18 mph46%29.95 "Hg10 mi
4:53 PM98 °FScattered clouds.22 mph42%29.96 "Hg10 mi
3:53 PM99 °FPassing clouds.21 mph39%29.96 "Hg10 mi
2:53 PM99 °FScattered clouds.23 mph41%29.98 "Hg10 mi
1:53 PM99 °FPassing clouds.21 mph39%29.98 "Hg10 mi
12:53 PM99 °FSunny.20 mph38%30.00 "Hg10 mi
11:53 AM95 °FSunny.20 mph44%30.01 "Hg10 mi
10:53 AM92 °FSunny.21 mph52%30.02 "Hg10 mi
Weather by CustomWeather, © 2014

See weather overviewHow to use our weather pages